Nebraska City, NE

11:48 AM CDT on October 22, 2019 (GMT -0500)
Nebraska City Municipal

Weather History for KAFK - September, 2019

Change the Weather History Date:

Tuesday, September 17, 2019

  Actual Average (KSDA) Record (KSDA)
Temperature  
Mean Temperature 80 °F -  
Max Temperature 91 °F 76 °F 96 °F (1953)
Min Temperature 70 °F 52 °F 30 °F (1980)
Cooling Degree Days 15    
Growing Degree Days 30 (Base 50)    
Moisture  
Dew Point 71 °F    
Average Humidity 77    
Maximum Humidity 100    
Minimum Humidity 45    
Precipitation  
Precipitation 0.00 in - - ()
Sea Level Pressure  
Sea Level Pressure 29.97 in    
Wind  
Wind Speed 10 mph (South)    
Max Wind Speed 21 mph    
Max Gust Speed 29 mph    
Visibility 9 miles    
Events      
Averages and records for this station are not official NWS values.
T = Trace of Precipitation, MM = Missing Value Source: NWS Daily Summary

Daily Weather History Graph

Daily Weather History Graph

Search for Another Location

Airport or City:

Astronomy

Sep. 17, 2019 Rise Set
Actual Time 7:05 AM CDT 7:29 PM CDT
Civil Twilight 6:38 AM CDT 7:56 PM CDT
Nautical Twilight 6:06 AM CDT 8:28 PM CDT
Astronomical Twilight 5:33 AM CDT 9:01 PM CDT
Moon 9:32 PM CDT (9/17) 10:12 AM CDT (9/17)
Length of Visible Light 13h 18m
Length of Day
12h 23m
Waning Gibbous, 89% of the Moon is Illuminated
Sep 17
Waning Gibbous
Sep 21
Last Quarter
Sep 28
New
Oct 5
First Quarter
Oct 13
Full

Hourly Weather History & Observations

Time (CDT) Temp. Heat Index Dew Point Humidity Pressure Visibility Wind Dir Wind Speed Gust Speed Precip Events Conditions
12:15 AM 75.7 °F - 73.6 °F 93% 30.00 in 10.0 mi South 6.9 mph - N/A   Clear
12:35 AM 75.2 °F - 73.4 °F 94% 30.00 in 10.0 mi South 6.9 mph - N/A   Clear
12:55 AM 74.7 °F - 73.4 °F 96% 30.00 in 10.0 mi South 6.9 mph - N/A   Clear
1:15 AM 73.9 °F - 73.2 °F 98% 30.00 in 10.0 mi South 6.9 mph - N/A   Clear
1:35 AM 73.4 °F - 73.0 °F 99% 30.00 in 10.0 mi South 6.9 mph - N/A   Clear
1:55 AM 72.7 °F - 72.7 °F 100% 30.00 in 10.0 mi South 6.9 mph - N/A   Clear
2:15 AM 72.5 °F - 72.5 °F 100% 30.00 in 10.0 mi South 6.9 mph - N/A   Clear
2:35 AM 72.0 °F - 72.0 °F 100% 30.00 in 10.0 mi South 6.9 mph - N/A   Clear
2:55 AM 72.1 °F - 72.1 °F 100% 29.99 in 10.0 mi South 6.9 mph - N/A   Clear
3:15 AM 72.0 °F - 72.0 °F 100% 29.99 in 7.0 mi South 5.8 mph - N/A   Clear
3:35 AM 71.8 °F - 71.8 °F 100% 29.99 in 10.0 mi South 5.8 mph - N/A   Clear
3:55 AM 71.6 °F - 71.6 °F 100% 29.99 in 7.0 mi South 5.8 mph - N/A   Clear
4:15 AM 71.4 °F - 71.4 °F 100% 29.99 in 7.0 mi South 6.9 mph - N/A   Clear
4:35 AM 71.6 °F - 71.6 °F 100% 29.99 in 7.0 mi South 6.9 mph - N/A   Clear
4:55 AM 70.7 °F - 70.7 °F 100% 29.99 in 7.0 mi SSE 5.8 mph - N/A   Clear
5:15 AM 71.1 °F - 71.1 °F 100% 29.99 in 7.0 mi SSE 6.9 mph - N/A   Clear
5:35 AM 70.7 °F - 70.7 °F 100% 29.99 in 7.0 mi South 6.9 mph - N/A   Clear
5:55 AM 70.7 °F - 70.7 °F 100% 29.99 in 7.0 mi South 5.8 mph - N/A   Clear
6:15 AM 70.5 °F - 70.5 °F 100% 30.00 in 7.0 mi South 6.9 mph - N/A   Clear
6:35 AM 70.3 °F - 70.3 °F 100% 30.00 in 7.0 mi South 6.9 mph - N/A   Clear
6:55 AM 70.5 °F - 70.5 °F 100% 30.01 in 7.0 mi South 6.9 mph - N/A   Clear
7:15 AM 70.5 °F - 70.5 °F 100% 30.01 in 5.0 mi SSE 6.9 mph - N/A   Clear
7:35 AM 70.9 °F - 70.9 °F 100% 30.01 in 7.0 mi SSE 5.8 mph - N/A   Clear
7:55 AM 71.6 °F - 71.6 °F 100% 30.01 in 7.0 mi SSE 8.1 mph - N/A   Clear
8:15 AM 72.9 °F - 72.9 °F 100% 30.01 in 7.0 mi South 8.1 mph - N/A   Clear
8:35 AM 73.8 °F - 73.4 °F 99% 30.01 in 10.0 mi SSE 8.1 mph - N/A   Clear
8:55 AM 75.2 °F - 74.1 °F 96% 30.01 in 10.0 mi SSE 9.2 mph - N/A   Clear
9:15 AM 77.2 °F - 74.1 °F 90% 30.01 in 10.0 mi South 11.5 mph - N/A   Clear
9:35 AM 79.0 °F - 73.9 °F 84% 30.01 in 10.0 mi South 9.2 mph - N/A   Clear
9:55 AM 80.6 °F 84.9 °F 72.5 °F 76% 30.01 in 10.0 mi South 12.7 mph 16.1 mph N/A   Clear
10:15 AM 81.7 °F 86.5 °F 72.1 °F 73% 30.02 in 10.0 mi South 12.7 mph 18.4 mph N/A   Clear
10:35 AM 82.8 °F 87.9 °F 72.0 °F 70% 30.02 in 10.0 mi South 15.0 mph - N/A   Clear
10:55 AM 83.5 °F 89.1 °F 72.1 °F 69% 30.01 in 10.0 mi South 13.8 mph - N/A   Clear
11:15 AM 84.2 °F 89.9 °F 72.3 °F 67% 30.01 in 10.0 mi South 11.5 mph 17.3 mph N/A   Clear
11:35 AM 84.9 °F 90.4 °F 71.6 °F 64% 30.01 in 10.0 mi South 16.1 mph - N/A   Clear
11:55 AM 85.5 °F 90.8 °F 71.2 °F 62% 30.00 in 10.0 mi SSW 12.7 mph - N/A   Clear
12:15 PM 86.9 °F 92.5 °F 70.9 °F 59% 29.99 in 10.0 mi South 15.0 mph 21.9 mph N/A   Clear
12:35 PM 87.4 °F 93.1 °F 71.1 °F 58% 29.99 in 10.0 mi South 17.3 mph 23.0 mph N/A   Clear
12:55 PM 88.3 °F 92.8 °F 69.1 °F 53% 29.98 in 10.0 mi SSW 16.1 mph 24.2 mph N/A   Clear
1:15 PM 88.7 °F 92.2 °F 68.0 °F 50% 29.98 in 10.0 mi SSW 18.4 mph - N/A   Clear
1:35 PM 88.9 °F 93.0 °F 68.9 °F 51% 29.97 in 10.0 mi South 17.3 mph - N/A   Clear
1:55 PM 89.2 °F 94.5 °F 70.3 °F 53% 29.97 in 10.0 mi South 12.7 mph 21.9 mph N/A   Scattered Clouds
2:15 PM 90.1 °F 94.4 °F 68.9 °F 49% 29.96 in 10.0 mi South 18.4 mph 21.9 mph N/A   Scattered Clouds
2:35 PM 90.5 °F 93.8 °F 66.9 °F 46% 29.95 in 10.0 mi SSW 17.3 mph 24.2 mph N/A   Clear
2:55 PM 90.5 °F 94.2 °F 67.5 °F 47% 29.95 in 10.0 mi South 19.6 mph 24.2 mph N/A   Clear
3:15 PM 90.7 °F 93.6 °F 66.4 °F 45% 29.94 in 10.0 mi South 16.1 mph 28.8 mph N/A   Clear
3:35 PM 90.1 °F 93.1 °F 66.7 °F 46% 29.94 in 10.0 mi South 18.4 mph 26.5 mph N/A   Scattered Clouds
3:55 PM 89.1 °F 92.1 °F 66.7 °F 48% 29.94 in 10.0 mi South 20.7 mph 27.6 mph N/A   Scattered Clouds
4:15 PM 90.5 °F 93.3 °F 66.2 °F 45% 29.93 in 10.0 mi South 20.7 mph 27.6 mph N/A   Scattered Clouds
4:35 PM 89.6 °F 92.6 °F 66.7 °F 47% 29.93 in 10.0 mi South 16.1 mph 24.2 mph N/A   Clear
4:55 PM 89.6 °F 92.2 °F 66.2 °F 46% 29.92 in 10.0 mi South 19.6 mph 27.6 mph N/A   Clear
5:15 PM 89.6 °F 91.8 °F 65.7 °F 45% 29.92 in 10.0 mi SSW 15.0 mph 26.5 mph N/A   Clear
5:35 PM 88.7 °F 91.1 °F 66.0 °F 47% 29.91 in 10.0 mi South 17.3 mph 26.5 mph N/A   Clear
5:55 PM 86.9 °F 88.9 °F 65.5 °F 49% 29.91 in 10.0 mi South 17.3 mph 20.7 mph N/A   Clear
6:15 PM 85.6 °F 87.9 °F 66.0 °F 52% 29.91 in 10.0 mi South 16.1 mph 20.7 mph N/A   Clear
6:35 PM 84.4 °F 87.1 °F 66.9 °F 56% 29.90 in 10.0 mi South 15.0 mph 20.7 mph N/A   Clear
6:55 PM 83.3 °F 86.2 °F 67.8 °F 59% 29.90 in 10.0 mi South 11.5 mph - N/A   Clear
7:15 PM 82.4 °F 85.4 °F 68.4 °F 62% 29.90 in 10.0 mi South 12.7 mph - N/A   Clear
7:35 PM 81.5 °F 84.6 °F 68.9 °F 65% 29.89 in 10.0 mi SSE 10.4 mph - N/A   Clear
7:55 PM 81.0 °F 84.1 °F 69.3 °F 67% 29.90 in 10.0 mi South 10.4 mph - N/A   Clear
8:15 PM 80.6 °F 83.9 °F 69.8 °F 70% 29.91 in 10.0 mi SSE 12.7 mph - N/A   Clear
8:35 PM 79.9 °F - 69.8 °F 71% 29.92 in 10.0 mi SSE 10.4 mph 17.3 mph N/A   Clear
8:55 PM 79.3 °F - 70.0 °F 73% 29.92 in 10.0 mi South 11.5 mph - N/A   Clear
9:15 PM 78.8 °F - 70.5 °F 76% 29.93 in 10.0 mi South 10.4 mph - N/A   Clear
9:35 PM 78.1 °F - 71.8 °F 81% 29.93 in 10.0 mi South 10.4 mph - N/A   Clear
9:55 PM 77.5 °F - 72.7 °F 85% 29.93 in 10.0 mi SSE 9.2 mph - N/A   Clear
10:15 PM 77.0 °F - 72.7 °F 86% 29.93 in 10.0 mi South 10.4 mph - N/A   Clear
10:35 PM 77.0 °F - 72.5 °F 86% 29.93 in 10.0 mi South 11.5 mph - N/A   Clear
10:55 PM 77.0 °F - 72.3 °F 85% 29.93 in 10.0 mi South 11.5 mph - N/A   Clear
11:15 PM 77.0 °F - 72.0 °F 84% 29.93 in 10.0 mi South 11.5 mph - N/A   Clear
11:35 PM 76.5 °F - 71.6 °F 85% 29.93 in 10.0 mi South 11.5 mph - N/A   Clear
11:55 PM 76.5 °F - 71.6 °F 85% 29.93 in 10.0 mi South 10.4 mph - N/A   Clear